This is the latest recevied weather packets stored in our database for station/object 9A7DI-13. If no packets are shown the sender has not sent any weather packets the latest 10 day(s).
| Time | Temp. | Humidity | Pressure | Rain* | Wind** | Luminosity | Snow |
|---|---|---|---|---|---|---|---|
| 1777789033 | 13.89° C | 59% | 1029.1 hPa | - | - | - | - |
| 1777788433 | 12.22° C | 58% | 1029.1 hPa | - | - | - | - |
| 1777787833 | 12.78° C | 61% | 1029 hPa | - | - | - | - |
| 1777787233 | 12.22° C | 65% | 1028.9 hPa | - | - | - | - |
| 1777786633 | 11.67° C | 66% | 1028.9 hPa | - | - | - | - |
| 1777786033 | 10.56° C | 68% | 1028.8 hPa | - | - | - | - |
| 1777785433 | 8.89° C | 73% | 1029 hPa | - | - | - | - |
| 1777784833 | 7.78° C | 75% | 1028.8 hPa | - | - | - | - |
| 1777784233 | 7.22° C | 77% | 1028.9 hPa | - | - | - | - |
| 1777783633 | 6.11° C | 80% | 1028.9 hPa | - | - | - | - |
| 1777783033 | 6.11° C | 80% | 1028.8 hPa | - | - | - | - |
| 1777782433 | 6.11° C | 81% | 1028.8 hPa | - | - | - | - |
| 1777781833 | 5.56° C | 80% | 1028.9 hPa | - | - | - | - |
| 1777781233 | 6.11° C | 80% | 1028.8 hPa | - | - | - | - |
| 1777780633 | 6.11° C | 79% | 1028.7 hPa | - | - | - | - |
| 1777780033 | 6.11° C | 77% | 1028.7 hPa | - | - | - | - |
| 1777779433 | 5.56° C | 79% | 1028.6 hPa | - | - | - | - |
| 1777778833 | 6.11° C | 76% | 1028.6 hPa | - | - | - | - |
| 1777778233 | 6.67° C | 78% | 1028.6 hPa | - | - | - | - |
| 1777777633 | 6.11° C | 79% | 1028.6 hPa | - | - | - | - |
| 1777777033 | 6.67° C | 75% | 1028.6 hPa | - | - | - | - |
| 1777776433 | 6.67° C | 77% | 1028.6 hPa | - | - | - | - |
| 1777775833 | 6.67° C | 78% | 1028.5 hPa | - | - | - | - |
| 1777775233 | 6.11° C | 79% | 1028.5 hPa | - | - | - | - |
| 1777774633 | 6.67° C | 79% | 1028.5 hPa | - | - | - | - |
* Rain since midnight (hover to see other rain measurements)
** Current wind speed in m/s (hover to see current wind gust speed)